Location: Melque
(41.0517°N, 4.4694°W)
Time: 21:15:45
(UTC+00:00)

Meteor 2-20 - Pass Details

Date: 23 March 2026
Orbit: 939 x 958 km, 82.5° (Epoch: 11 April)

Event Time Altitude Azimuth Distance (km) Brightness Sun altitude
Rises 05:26:28 0° 160° (SSE) 3,610 7.6 -10.2°
Reaches altitude 10° 05:29:09 10° 152° (SSE) 2,672 7.0 -9.7°
Maximum altitude 05:34:36 35° 88° (E) 1,492 6.3 -8.7°
Drops below altitude 10° 05:40:05 10° 25° (NNE) 2,695 7.3 -7.7°
Sets 05:42:47 0° 17° (NNE) 3,646 7.9 -7.2°
